Regional Weather Roundup
Issued by NWS

Home | Current Version | Previous Version | Graphics & Text | Print | Product List | Glossary On
Versions: 1 2 3 4 5 6 7 8 9 10 11 12 13 14 15 16 17 18 19 20 21 22 23 24 25 26 27 28 29 30 31 32 33 34 35 36 37 38 39 40 41 42 43 44 45 46 47 48 49 50
000
ASUS45 KBOI 020410
RWRID

IDAHO REGIONAL WEATHER ROUNDUP
NATIONAL WEATHER SERVICE BOISE ID
1000 PM MDT WED JUL 01 2015

NOTE: "FAIR" INDICATES FEW OR NO CLOUDS BELOW 12000 FEET
WITH NO SIGNIFICANT WEATHER AND/OR OBSTRUCTIONS TO VISIBILITY

IDZ012-014-020500-
SOUTHWEST IDAHO


CITY           SKY/WX    TMP DP  RH WIND       PRES   REMARKS
BOISE          PTCLDY    91  40  16 N5        29.90R
CALDWELL       PTCLDY    86  54  32 CALM      29.89R
MOUNTAIN HOME  PTCLDY    85  39  19 W8        29.91R
$$

IDZ016-017-020500-
SOUTHCENTRAL IDAHO


CITY           SKY/WX    TMP DP  RH WIND       PRES   REMARKS
BURLEY         PTCLDY    76  57  51 SW10      29.98R
JEROME         PTCLDY    82  48  30 SW6       29.99R
TWIN FALLS     PTCLDY    88  43  20 W14       29.98R
$$

IDZ019>023-020500-
SOUTHEAST IDAHO


CITY           SKY/WX    TMP DP  RH WIND       PRES   REMARKS
IDAHO FALLS    CLEAR     81  53  37 SE6       30.02S
POCATELLO      CLEAR     83  44  25 S12       30.00R
REXBURG        CLEAR     75  58  55 CALM      30.05R
$$

IDZ006-010-011-018-031-032-020500-
CENTRAL IDAHO MOUNTAINS


CITY           SKY/WX    TMP DP  RH WIND       PRES   REMARKS
MCCALL         PTCLDY    80  40  23 N7        30.11R
HAILEY         PTCLDY    75  45  33 W8        30.08S
STANLEY          N/A     64  32  30 S3        30.23R
SALMON         CLEAR     79  43  27 E5        30.01R
CHALLIS        CLEAR     77  42  28 N7        30.08R
$$

IDZ002-004-006-007-026-020500-
NORTHERN IDAHO


CITY           SKY/WX    TMP DP  RH WIND       PRES   REMARKS
LEWISTON       CLEAR     91  46  21 E3        29.89S
LOWELL           N/A     74  56  53 CALM      29.93R
COEUR D`ALENE  CLEAR     79  50  36 N8        29.95R
MULLAN PASS    CLEAR     68  39  34 VRB3      30.24R
$$


USA.gov is the U.S. government's official web portal to all federal, state and local government web resources and services.